Regional Weather Roundup
Issued by NWS Charleston, WV

Home | Current Version | Previous Version | Graphics & Text | Print | Product List | Glossary On
Versions: 1 2 3 4 5 6 7 8 9 10 11 12 13 14 15 16 17 18 19 20 21 22 23 24 25 26 27 28 29 30 31 32 33 34 35 36 37 38 39 40 41 42 43 44 45 46 47 48 49 50
000
ASUS41 KRLX 192010
RWRRLX
West Virginia Regional Weather Roundup
National Weather Service Charleston WV
400 PM EDT SAT AUG 19 2017

Note: "fair" indicates few or no clouds below 12,000 feet with no
significant weather and/or obstructions to visibility.

WVZ003-192100-
Northern Panhandle of West Virginia

CITY           SKY/WX    TMP DP  RH WIND       PRES   REMARKS
WHEELING       PTSUNNY   80  62  54 SW10G20   29.92S
$$

WVZ009-192100-
Northwest West Virginia

CITY           SKY/WX    TMP DP  RH WIND       PRES   REMARKS
PARKERSBURG    MOSUNNY   84  65  52 SW10G20   29.96F
$$

WVZ006-192100-
Western West Virginia

CITY           SKY/WX    TMP DP  RH WIND       PRES   REMARKS
HUNTINGTON     MOSUNNY   85  66  53 W7        29.96F
$$

WVZ015-192100-
West Central West Virginia

CITY           SKY/WX    TMP DP  RH WIND       PRES   REMARKS
CHARLESTON     MOSUNNY   86  64  47 S10       29.96F
$$

WVZ022-031-192100-
North Central West Virginia

CITY           SKY/WX    TMP DP  RH WIND       PRES   REMARKS
CLARKSBURG     PTSUNNY   83  61  47 SW7       29.95F
MORGANTOWN     MOSUNNY   84  62  47 VRB6      29.94F
$$

WVZ025-035-042-045-192100-
Southern West Virginia

CITY           SKY/WX    TMP DP  RH WIND       PRES   REMARKS
BECKLEY        MOSUNNY   81  59  47 NW3       30.05F
LOGAN            N/A     82  64  54 CALM      30.01F
BLUEFIELD      SUNNY     77  59  53 VRB3      30.08F
LEWISBURG      SUNNY     80  58  47 SW3       30.04F
$$

WVZ047-192100-
Northern Mountains of West Virginia

CITY           SKY/WX    TMP DP  RH WIND       PRES   REMARKS
ELKINS         SUNNY     82  59  45 VRB6      30.01F
$$

WVZ052-192100-
Eastern Panhandle of West Virginia

CITY           SKY/WX    TMP DP  RH WIND       PRES   REMARKS
MARTINSBURG    MOSUNNY   85  63  47 SW9       29.89F
PETERSBURG     SUNNY     88  63  42 S3        29.93F
$$



USA.gov is the U.S. government's official web portal to all federal, state and local government web resources and services.